STARLINK-32386

Last updated on Mon Oct 21 2024 00:02:04 GMT+0000 (Coordinated Universal Time)

1 61213U 24171P 24294.58334491 .00060539 00000+0 17996-2 0 9992 2 61213 53.1600 150.3086 0001282 101.8808 146.2817 15.34204225 6005
UTC large
Height (km)
Speed (km/s)
/
Latitude / Longitude
Inclination (degrees)
Orbital Period (minutes)
Azimuth
Elevation
Range (km)
Doppler Factor

Next 0 passes for location: London (51.5072 / 0.1276)

Sorry there are no passes over London.